Location: Brachbach
(49.1847°N, 9.7240°E)
Time: 19:24:17
(UTC+00:00)

SAR-Lupe-4 - Pass Details

Date: 23 May 2024
Orbit: 476 x 482 km, 98.1° (Epoch: 02 April)

Event Time Altitude Azimuth Distance (km) Brightness Sun altitude
Rises 02:09:14 0° 15° (NNE) 2,554 8.5 -10.5°
Reaches altitude 10° 02:11:18 10° 18° (NNE) 1,669 7.5 -10.2°
Maximum altitude 02:14:53 72° 103° (ESE) 512 3.7 -9.9°
Drops below altitude 10° 02:18:26 10° 188° (S) 1,654 5.8 -9.5°
Enters shadow 02:18:38 - 189° (S) 1,740 5.9 -9.4°
